Regional Weather Roundup
Issued by NWS

Home | Current Version | Previous Version | Graphics & Text | Print | Product List | Glossary Off
Versions: 1 2 3 4 5 6 7 8 9 10 11 12 13 14 15 16 17 18 19 20 21 22 23 24 25 26 27 28 29 30 31 32 33 34 35 36 37 38 39 40 41 42 43 44 45 46 47 48 49 50

227
ASUS43 KMKX 251111
RWRWI

WISCONSIN REGIONAL WEATHER ROUNDUP
NATIONAL WEATHER SERVICE MILWAUKEE/SULLIVAN WI
500 AM CST SAT NOV 25 2017

NOTE: "FAIR" INDICATES FEW OR NO CLOUDS BELOW 12,000 FEET WITH NO
SIGNIFICANT WEATHER AND/OR OBSTRUCTIONS TO VISIBILITY.

WIZ001-002-006>008-014>016-023>028-251200-
NORTHWEST WISCONSIN

CITY           SKY/WX    TMP DP  RH WIND       PRES   REMARKS
SUPERIOR ARPT  CLEAR     31  19  62 NW12G23   29.84R WCI  22
ASHLAND        CLEAR     31  19  61 W13G21    29.79R WCI  21
HAYWARD        CLOUDY    34  23  64 NW8G22    29.79R WCI  27
SIREN          PTCLDY    32  25  75 N9        29.85R WCI  25
CUMBERLAND     PTCLDY    32  28  86 W13       29.81R WCI  22
RICE LAKE      CLEAR     34  28  80 W8        29.83R WCI  27
CHETEK         CLEAR     34  28  80 W7        29.81R WCI  28
LADYSMITH      CLEAR     35  26  70 NW18G24   29.79R WCI  24
EAU CLAIRE     MOCLDY    35  30  82 W12       29.82R WCI  27
MENOMONIE      CLEAR     36  31  83 W13G21    29.83R WCI  27
NEW RICHMOND   CLEAR     34  27  76 W10       29.86R WCI  26
OSCEOLA        CLEAR     35  28  78 W12       29.90R WCI  26
$$

WIZ003>005-009-010-017-018-251200-
NORTH CENTRAL WISCONSIN

CITY           SKY/WX    TMP DP  RH WIND       PRES   REMARKS
MANITOWISH WTR CLOUDY    31  21  66 NW14      29.70R WCI  21
ARBOR VITAE    CLOUDY    33  23  66 NW15G23   29.70R WCI  23
WOODRUFF       CLOUDY    33  23  66 NW15G23   29.70R WCI  23
RHINELANDER    CLOUDY    36  29  75 NW10G25   29.68R WCI  28
EAGLE RIVER    CLOUDY    32  22  65 NW24G30   29.67R WCI  19
LAND O LAKES   CLOUDY    32  24  72 NW13G26   29.68R WCI  22
PHILLIPS       CLOUDY    33  26  75 NW14      29.73R WCI  23
TOMAHAWK       CLOUDY    34  28  77 W13G22    29.70R WCI  25
MEDFORD        PTCLDY    33  27  80 W13G21    29.73R WCI  23
MERRILL        CLOUDY    36  29  78 W10G16    29.71R WCI  28
$$

WIZ029-030-035-036-043>047-251200-
CENTRAL WISCONSIN

CITY           SKY/WX    TMP DP  RH WIND       PRES   REMARKS
WAUSAU         MOCLDY    35  29  78 W15       29.71R WCI  25
MOSINEE        CLEAR     32  32 100 W10       29.74R WCI  24
MARSHFIELD     CLEAR     34  29  82 W13       29.74R WCI  25
STEVENS POINT  CLEAR     33  32  93 W8        29.74R WCI  27
WAUPACA        MOCLDY    39  32  77 W8        29.74R WCI  33
WAUTOMA        MOCLDY    37  32  82 W13       29.76R WCI  29
WISC RAPIDS    MOCLDY    36  31  82 NW12G18   29.77R WCI  28
CAMP DOUGLAS   PTCLDY    36  32  85 W10       29.79R WCI  29
$$

WIZ011>013-019>022-031-037>040-048>050-251200-
NORTHEAST WISCONSIN

CITY           SKY/WX    TMP DP  RH WIND       PRES   REMARKS
ANTIGO         CLOUDY    34  30  85 W12G17    29.68R WCI  26
SHAWANO        CLOUDY    41  32  70 W9        29.69R
OCONTO         CLOUDY    40  32  71 W9        29.68R WCI  34
STURGEON BAY   CLOUDY    39  34  82 W8        29.67R WCI  33
GREEN BAY      CLOUDY    41  34  76 W15       29.70R
MANITOWOC      CLOUDY    42  32  67 W14G24    29.71R
APPLETON       PTCLDY    36  30  80 W12       29.71R WCI  27
CLINTONVILLE   CLOUDY    37  30  75 W9        29.71R WCI  31
OSHKOSH        CLEAR     39  32  76 W10       29.73R WCI  32
$$

WIZ032>034-041-042-053>061-251200-
SOUTHWEST WISCONSIN

CITY           SKY/WX    TMP DP  RH WIND       PRES   REMARKS
LA CROSSE      PTCLDY    40  33  76 W10       29.84R WCI  33
SPARTA         PTCLDY    36  32  87 W6        29.82R WCI  31
VIROQUA        PTCLDY    36  34  92 W8        29.82R WCI  30
BOSCOBEL       CLEAR     38  32  79 SW8       29.85R WCI  32
PRAIRIE DU CHI CLOUDY    38  31  77 W5        29.87R WCI  34
PLATTEVILLE    PTCLDY    37  35  90 W9        29.85R WCI  31
$$

WIZ056-057-062-063-064-067-068-251200-
SOUTH CENTRAL WISCONSIN

CITY           SKY/WX    TMP DP  RH WIND       PRES   REMARKS
REEDSBURG      PTCLDY    37  32  82 W9        29.79R WCI  31
BARABOO/DELLS  PTCLDY    38  32  80 W8        29.78R WCI  32
LONE ROCK      PTCLDY    36  32  85 W8        29.83R WCI  30
MINERAL POINT  PTCLDY    36  36 100 W9        29.82R WCI  29
MADISON        PTCLDY    38  31  76 W3        29.78S
MIDDLETON      PTCLDY    37  33  84 W9        29.80R WCI  31
WATERTOWN      CLEAR     38  34  84 W8        29.78R WCI  33
MONROE         PTCLDY    37  32  81 W14       29.81R WCI  29
JANESVILLE     PTCLDY    39  34  81 W9        29.80R WCI  33
$$

WIZ051-052-058>065-066-070>072-251200-
SOUTHEAST WISCONSIN

CITY           SKY/WX    TMP DP  RH WIND       PRES   REMARKS
MILWAUKEE      MOCLDY    44  35  70 NW14G24   29.76R
WAUKESHA       PTCLDY    37  32  81 W13G22    29.78R WCI  29
MILWAUKEE/TIMM PTCLDY    39  32  75 W15       29.76R WCI  31
RACINE         CLOUDY    43  35  73 W9        29.78R
BURLINGTON     MOCLDY    43  37  82 NW13      29.78R
KENOSHA        PTCLDY    42  34  73 W13       29.76R
FOND DU LAC    CLEAR     39  31  72 W12       29.74R WCI  32
SHEBOYGAN      CLEAR     41  35  79 W10G20    29.72R
WEST BEND      CLEAR     37  32  81 W15G22    29.74R WCI  28
JUNEAU         CLEAR     37  32  81 W7        29.77R WCI  32
$$

LSZ147-162-251200-
LAKE SUPERIOR

STATION/POSITION TIME  TEMP    WIND        PRES    WAVE
                       AIR SEA DIR/SP/G            HT/PER
                 (UTC) (F)     (DEG/KT/KT) (MB)    (FT/S)
DEVILS ISLAND    1100   31     310/ 26/ 31 1009.1R
SAXON HARBOR     1040   36     300/ 18/ 25 1007.5R
$$

LMZ867-665-643>646-251200-
LAKE MICHIGAN

STATION/POSITION TIME  TEMP    WIND        PRES    WAVE
                       AIR SEA DIR/SP/G            HT/PER
                 (UTC) (F)     (DEG/KT/KT) (MB)    (FT/S)
N MID LAKE BUOY  1050   43 47  260/ 14/ 16 1003.7R   3/ 7
NORTHPORT PIER   1040   42     270/  6/ 11 1003.4R
KEWAUNEE LAKESHO 1042   42     280/  8/ 13 1004.2R
SHEBOYGAN LAKESH 1100   43     290/ 15/ 18 1006.4R
PORT WASHINGTON  1040   43     280/  8/ 12 1007.8R
MILWAUKEE LAKESH 1050   42     290/ 12/ 19   N/A
S MID LAKE BUOY  1050   46 47  330/ 19/ 23 1006.9R   4/ 4
KENOSHA   LAKESH 1100   44     290/ 13/ 19 1007.8
$$

TC  - TEMPERATURE IN CELSIUS
VSB - VISIBILITY IN STATUTE MILES
WCI - WIND CHILL INDEX
HX  - HEAT INDEX





USA.gov is the U.S. government's official web portal to all federal, state and local government web resources and services.